World > North America > United States > North Dakota

Oriska, North Dakota Regional Weather

Lat: 46.93N, Lon: 97.79W
Wx Zone: NDZ038Web Search
Oriska Weather Warning NWS WEATHER ALERT FOR THE ORISKA, ND AREA - Issued: 426 AM CDT Mon May 17 2021 Oriska Weather Warning  

Pass this page to a friend. Tell them to point their camera at the QR Code near the bottom of this page.

Feedback


°F Click to change Oriska hourly weather to Imperial units.Click to change Oriska hourly weather to Metric units. °C
Oriska Weather Map
UTC Time: 5/18/2021, 00:59
Your Time:

Oriska, ND Regional Weather

Expires:202105180100;;282257
ASUS43 KBIS 180010
RWRND 

NORTH DAKOTA REGIONAL WEATHER ROUNDUP
NATIONAL WEATHER SERVICE BISMARCK ND
700 PM CDT MON MAY 17 2021

NOTE: "FAIR" INDICATES FEW OR NO CLOUDS BELOW 12,000 FEET WITH NO
SIGNIFICANT WEATHER AND/OR OBSTRUCTIONS TO VISIBILITY.



NDZ022-023-025-028>030-036>039-047>053-180100-
SOUTHEAST NORTH DAKOTA
  
CITY           SKY/WX    TMP DP  RH WIND       PRES   REMARKS
FARGO          FAIR      81  39  22 S17G28    29.98F                  
6HR MIN TEMP:  79; 6HR MAX TEMP:  84;                                

JAMESTOWN      FAIR      78  34  20 S20G31    29.97S                  
$$ 

  

SKY/WX - Weather  TMP - Temperature  DP - Dew Point  RH - Relative Humidity
WIND - Wind Direction/Speed PRES - Barometric Pressure VSB - Visibility
WCI - Wind Chill Index E13G22 Wind - East Wind 13 mph/Gusts of 22 mph